This demonstration page uses our WeatherBlox Daily Observations layout. Learn more.

Left ArrowRight Arrow

41.86663, -103.66717

Hourly Observations for February 12, 2019

Temp ( °F °C ) Dew Point ( °F °C ) Humidity (%) Winds ( mph kmh ) Pressure ( in mb ) Visibility ( mi km ) Precip ( " mm )
12:53 am 00:53 Clear 19 -7.2 11 -11.7 71 71 NW 9 15 30.06 1018 10 16 N/A
1:53 am 01:53 Clear 20 -6.7 12 -11.1 71 71 WNW 6 9 30.07 1018 10 16 N/A
2:53 am 02:53 Clear 21 -6.1 13 -10.6 71 71 WNW 9 15 30.07 1018 10 16 N/A
3:53 am 03:53 Clear 25 -3.9 14 -10 63 63 WNW 12 19 30.07 1018 10 16 N/A
4:53 am 04:53 Clear 19 -7.2 12 -11.1 74 74 NNW 8 13 30.11 1020 10 16 N/A
5:53 am 05:53 Clear 26 -3.3 15 -9.4 63 63 WNW 12 19 30.11 1020 10 16 N/A
6:53 am 06:53 Clear 23 -5 13 -10.6 65 65 WNW 9 15 30.14 1021 10 16 N/A
7:53 am 07:53 Sunny 29 -1.7 15 -9.4 56 56 WNW 13 20 30.13 1020 10 16 N/A
8:53 am 08:53 Sunny 34 1.1 17 -8.3 50 50 WNW 16 26 30.14 1021 10 16 N/A
9:53 am 09:53 Sunny 38 3.3 19 -7.2 46 46 W 14 22 30.15 1021 10 16 N/A
10:53 am 10:53 Sunny 40 4.4 20 -6.7 45 45 W 15 24 30.15 1021 10 16 N/A
11:53 am 11:53 Sunny 43 6.1 19 -7.2 38 38 W 17 28 30.13 1020 10 16 N/A
12:53 pm 12:53 Sunny 45 7.2 19 -7.2 35 35 W 17 28 30.08 1019 10 16 N/A
1:53 pm 13:53 Sunny 46 7.8 17 -8.3 31 31 W 23 37 30.05 1018 10 16 N/A
2:53 pm 14:53 Sunny 47 8.3 18 -7.8 31 31 WNW 25 41 30.04 1017 10 16 N/A
3:53 pm 15:53 Sunny 46 7.8 17 -8.3 31 31 WNW 21 33 30.02 1017 10 16 N/A
4:53 pm 16:53 Sunny 42 5.6 17 -8.3 36 36 W 18 30 30.04 1017 10 16 N/A
5:53 pm 17:53 Clear 38 3.3 17 -8.3 43 43 NW 9 15 30.04 1017 10 16 N/A
6:53 pm 18:53 Clear 38 3.3 16 -8.9 41 41 WNW 8 13 30.06 1018 10 16 N/A
7:53 pm 19:53 Clear 34 1.1 17 -8.3 50 50 WSW 6 9 30.05 1018 10 16 N/A
8:53 pm 20:53 Clear 28 -2.2 17 -8.3 63 63 NE 3 6 30.04 1017 10 16 N/A
9:53 pm 21:53 Clear 27 -2.8 19 -7.2 72 72 SE 6 9 30.01 1016 10 16 N/A
10:53 pm 22:53 Clear 29 -1.7 19 -7.2 66 66 E 6 9 29.97 1015 10 16 N/A
11:53 pm 23:53 Clear 29 -1.7 20 -6.7 69 69 E 8 13 29.95 1014 10 16 N/A

Powered by AerisWeather